User: anonymous   Login
Location: Bonny Doon Airfield
(37.0704°N, 122.1252°W)
Time: 18:15:04
(UTC-07:00)
Language:

Tiangong 2 - Orbit

View from above orbital plane
View from above orbital plane
View from above satellite
View from above satellite

Ground track
Ground track

The orbit data is extracted from the following two-line orbital elements,

1 41765U 16057A   17294.49502402  .00005382  00000-0  71270-4 0  9990
2 41765  42.7843 324.5189 0002458  15.6783 130.1874 15.59250381 62690
Epoch (UTC): 21 October 2017 11:52:50
Eccentricity: 0.0002458
inclination: 42.7843°
perigee height: 388 km
apogee height: 391 km
right ascension of ascending node: 324.5189°
argument of perigee: 15.6783°
revolutions per day: 15.59250381
mean anomaly at epoch: 130.1874°
orbit number at epoch: 6269

The dashed part of the orbit path shows where the satellite is in the earth's shadow,  

DLR